Regional Weather Roundup
Issued by NWS

Home | Current Version | Previous Version | Graphics & Text | Print | Product List | Glossary On
Versions: 1 2 3 4 5 6 7 8 9 10 11 12 13 14 15 16 17 18 19 20 21 22 23 24 25 26 27 28 29 30 31 32 33 34 35 36 37 38 39 40 41 42 43 44 45 46 47 48 49 50
000
ASUS43 KLOT 250310
RWRIL

ILLINOIS REGIONAL WEATHER ROUNDUP
NATIONAL WEATHER SERVICE CHICAGO/ROMEOVILLE IL
1000 PM CDT THU APR 24 2014

NOTE: "FAIR" INDICATES FEW OR NO CLOUDS BELOW 12,000 FEET WITH NO
SIGNIFICANT WEATHER AND/OR OBSTRUCTIONS TO VISIBILITY.

* THESE STATIONS ARE NOT UNDER NWS QUALITY CONTROL. THEY ALSO MAY NOT
  REPORT WEATHER SUCH AS PRECIPITATION OR FOG.

ILZ001-002-007-009-015-016-024-250400-
NORTHWEST ILLINOIS

CITY           SKY/WX    TMP DP  RH WIND       PRES   REMARKS
MOLINE         LGT RAIN  54  51  90 N5        29.65R
STERLING*      CLOUDY    54  48  82 N6        29.64S
SAVANNA*       RAIN      53  51  94 CALM      29.68S
$$

ILZ003-004-008-010-011-017-018-250400-
NORTH CENTRAL ILLINOIS

CITY           SKY/WX    TMP DP  RH WIND       PRES   REMARKS
ROCKFORD       LGT RAIN  54  45  71 S8        29.69F
FREEPORT*      RAIN      51  49  93 N3        29.70S
ROCHELLE*      CLOUDY    53  46  76 SE9       29.65F
DE KALB*       LGT RAIN  51  42  71 SE9       29.68F
$$

ILZ005-006-012>014-019>023-250400-
NORTHEAST ILLINOIS

CITY           SKY/WX    TMP DP  RH WIND       PRES   REMARKS
CHICAGO-OHARE  CLOUDY    56  34  43 SE14      29.68F
CHICAGO-MIDWAY CLOUDY    58  31  35 SE14      29.69F
AURORA         CLOUDY    55  39  54 SE10      29.68R
LANSING*       CLOUDY    57  28  32 SE13G20   29.70F
JOLIET*        CLOUDY    57  32  38 SE14G21   29.68F
WAUKEGAN       CLOUDY    46  32  58 SE12      29.71S
DUPAGE AIRPORT LGT RAIN  58  34  40 SE7       29.69R
KANKAKEE*      CLOUDY    59  37  43 E9        29.69S
WHEELING       CLOUDY    55  36  48 SE7       29.70F
MORRIS*        DRIZZLE   57  36  44 SE12      29.67R
ROMEOVILLE*    CLOUDY    58  31  36 SE14G21   29.67F
NORTHERLY ISL    N/A     52  39  61 E10         N/A
$$

LMZ740>746-250400-
SOUTHERN LAKE MICHIGAN

STATION/POSITION SKY/WX   TEMP    WIND        PRES    VSBY  WAVE
                          AIR SEA DIR/SP/G                  HT/PER
                          (F)     (DEG/KT/KT) (MB)    (MI)  (FT/S)
WAUKEGAN HARBOR            45     120/ 13/ 17 1007.8S
HARRISON CRIB              50     110/ 17/ 19   N/A
BURNHAM HARBOR             50     110/  8/ 10   N/A
CALUMET HARBOR             57     110/ 11/ 13 1006.8F
MICHIGAN CITY              58     110/ 14/ 19   N/A
$$

ILZ025>027-034>036-040-047-049-050-058-095>099-250400-
WEST-CENTRAL ILLINOIS

CITY           SKY/WX    TMP DP  RH WIND       PRES   REMARKS
QUINCY         CLOUDY    54  53  97 NW17G25   29.66R
GALESBURG*     CLOUDY    53  53 100 N13       29.64R
MACOMB*        CLOUDY    53  53  99 NW10      29.67R FOG
JACKSONVILLE*  CLOUDY    57  56  95 S5        29.65R
PITTSFIELD*    CLOUDY    58  55  89 W9        29.66R
$$

ILZ028>032-037-038-041>044-048-051>054-059>061-250400-
CENTRAL ILLINOIS

CITY           SKY/WX    TMP DP  RH WIND       PRES   REMARKS
PONTIAC        CLOUDY    57  48  72 E9        29.65F
BLOOMINGTON    LGT RAIN  59  51  74 SE9       29.64F
DECATUR        LGT RAIN  60  56  86 SW7       29.67S
PEORIA         CLOUDY    60  53  77 S7        29.59S
LACON*         LGT RAIN  58  50  73 E12       29.58F
LINCOLN*       RAIN      60  57  89 S7        29.62F
SPRINGFIELD    LGT RAIN  59  56  89 CALM      29.64S
TAYLORVILLE    RAIN      55  54  94 SE8       29.67S
$$

ILZ033-039-045-046-055>057-062-063-250400-
EAST-CENTRAL ILLINOIS

CITY           SKY/WX    TMP DP  RH WIND       PRES   REMARKS
CHAMPAIGN      LGT RAIN  63  47  55 SW12      29.67R
RANTOUL*       LGT RAIN  63  45  52 CALM      29.66R
MATTOON        LGT RAIN  59  52  77 SW7G20    29.69R
PARIS*         CLOUDY    65  42  43 SE6       29.66F
$$

ILZ079-100>102-250400-
SOUTHWEST ILLINOIS

CITY           SKY/WX    TMP DP  RH WIND       PRES   REMARKS
ALTON          LGT RAIN  57  57 100 CALM      29.66S
BELLEVILLE     LGT RAIN  57  57 100 NE8       29.64F
CAHOKIA*       LGT RAIN  58  57  97 SE5       29.67R
SPARTA*        RAIN      55  55 100 E6        29.69F
$$

ILZ064>066-069>071-074>076-080>082-084>086-088>090-092>094-250400-
SOUTH-CENTRAL ILLINOIS

CITY           SKY/WX    TMP DP  RH WIND       PRES   REMARKS
CARBONDALE     RAIN      62  59  90 E12       29.62F FOG
CAIRO*         CLOUDY    65  60  82 S9G16     29.70R
MARION         HVY RAIN  64  61  88 CALM      29.69F
MT. VERNON     CLOUDY    59  50  72 W6        29.75R
CENTRALIA*     HVY RAIN  57  55  92 NE3       29.70F
SALEM*         HVY RAIN  59  58  96 NW7       29.71R
METROPOLIS*    LGT RAIN  63  60  91 S5        29.70F
$$

ILZ067-068-072-073-078-083-087-091-250400-
SOUTHEAST ILLINOIS

CITY           SKY/WX    TMP DP  RH WIND       PRES   REMARKS
FLORA*         LGT RAIN  60  57  88 W12G17    29.72R
FAIRFIELD*     HVY RAIN  63  61  94 W6G18     29.71R
HARRISBURG*    HVY RAIN  63  59  88 SW10      29.74R
ROBINSON*      CLOUDY    69  41  36 SE10      29.67F
CARMI*         LGT RAIN  65  56  72 SW10      29.69R
$$

ABBREVIATIONS USED IN REMARKS
   TC - TEMPERATURE IN CELSIUS
  WCI - WIND CHILL INDEX
   HX - HEAT INDEX
  VSB - VISIBILITY
$$




USA.gov is the U.S. government's official web portal to all federal, state and local government web resources and services.